ROMMA est une association bénévole à but non lucratif. Votre soutien est indispensable : ADHERER à ROMMA ou FAIRE un DON

Taninges - (74, Haute-Savoie)

Vallée du Giffre (635 m)   Longitude: 06° 35' 38" E   Latitude: 46° 06' 21" N Station romma n°98
 

Détail journalier du     <<     >>

Température Precipitation Humidité Pression Vent Dir Rafale Dir. rafale Ensol.
Heure (°C) (mm) (%) (hPa) (km/h) (km/h) (min)
01:00 -6.509010211SSO5ENE0
02:00 -6.309110211ONO5ONO0
03:00 -6.109010212ESE5O0
04:00 -6.409110211ENE6O0
05:00 -7.209110211S5SO0
06:00 -6.7092102105SO0
07:00 -6.609110211SO6O0
08:00 -7.2092102105E0
09:00 -6.309310211SSO3NNE30
10:00 -2.808410201SSO5OSO60
11:00 0.207310192SSE5ONO60
12:00 1.007210191SSE3SSE40
13:00 2.8065101803SSE0
14:00 3.706310162E5E5
15:00 5.9056101603SSE35
16:00 8.2047101502SSE60
17:00 2.706910151SO6SO35
18:00 -0.2084101505SE0
19:00 -2.2088101502SE0
20:00 -3.0092101403SE0
21:00 -3.609310131SSE8SO0
22:00 -3.209410111NNE18SO0
23:00 -3.409510103NE8OSO0
minuit -3.409410093N11OSO0

Graphique du 26-01-2019

 

Serveur OMMA